This demonstration page uses our WeatherBlox Daily Observations layout. Learn more.

Left ArrowRight Arrow

Hourly Observations for November 12, 2020

Temp ( °F °C ) Dew Point ( °F °C ) Humidity (%) Winds ( mph kmh ) Pressure ( in mb ) Visibility ( mi km ) Precip ( " mm )
12:52 am 00:52 Clear 35 1.7 29 -1.7 78 78 SSE 6 9 30.06 1018 10 16 0.00 0.00
1:52 am 01:52 Clear 35 1.7 29 -1.7 78 78 SSE 8 13 30.05 1018 10 16 0.00 0.00
2:52 am 02:52 Clear 36 2.2 30 -1.1 79 79 SSE 8 13 30.04 1017 10 16 0.00 0.00
3:52 am 03:52 Clear 34 1.1 29 -1.7 82 82 SSE 6 9 30.05 1018 10 16 0.00 0.00
4:52 am 04:52 Mostly Clear 32 0 27 -2.8 82 82 SSE 6 9 30.04 1017 10 16 0.00 0.00
5:52 am 05:52 Mostly Clear 31 -0.6 28 -2.2 89 89 SSE 3 6 30.06 1018 10 16 0.00 0.00
6:52 am 06:52 Partly Cloudy 31 -0.6 29 -1.7 92 92 SSE 5 7 30.06 1018 10 16 0.00 0.00
7:52 am 07:52 Mostly Cloudy 34 1.1 31 -0.6 89 89 Calm 30.06 1018 10 16 0.00 0.00
8:52 am 08:52 Mostly Cloudy 33 0.6 32 0 96 96 Calm 30.06 1018 10 16 0.00 0.00
9:52 am 09:52 Mostly Cloudy 37 2.8 32 0 82 82 WNW 6 9 30.06 1018 10 16 0.00 0.00
10:52 am 10:52 Mostly Cloudy 37 2.8 32 0 82 82 N 17 28 30.09 1019 10 16 0.00 0.00
11:00 am 11:00 Mostly Cloudy 35 1.7 30 -1.1 82 82 NNW 23 37 30.12 1020 10 16 0.00 0.00
11:28 am 11:28 Partly Cloudy 37 2.8 28 -2.2 70 70 NNW 20 31 30.10 1019 10 16 0.00 0.00
11:52 am 11:52 Partly Cloudy 38 3.3 29 -1.7 70 70 N 20 31 30.07 1018 10 16 0.00 0.00
12:52 pm 12:52 Mostly Cloudy 38 3.3 29 -1.7 70 70 NNW 22 35 30.08 1019 10 16 0.00 0.00
1:08 pm 13:08 Cloudy 36 2.2 28 -2.2 73 73 NNW 22 35 30.11 1020 10 16 0.00 0.00
1:52 pm 13:52 Cloudy 35 1.7 28 -2.2 76 76 NNW 23 37 30.10 1019 10 16 0.00 0.00
2:52 pm 14:52 Cloudy 33 0.6 27 -2.8 78 78 NNW 22 35 30.13 1020 10 16 0.00 0.00
3:52 pm 15:52 Cloudy 33 0.6 25 -3.9 72 72 NNW 14 22 30.17 1022 10 16 0.00 0.00
4:52 pm 16:52 Mostly Cloudy 32 0 23 -5 69 69 NNW 15 24 30.20 1023 10 16 0.00 0.00
5:52 pm 17:52 Partly Cloudy 30 -1.1 22 -5.6 72 72 NNW 12 19 30.24 1024 10 16 0.00 0.00
6:52 pm 18:52 Mostly Clear 28 -2.2 20 -6.7 72 72 NNW 10 17 30.27 1025 10 16 0.00 0.00
7:52 pm 19:52 Mostly Clear 26 -3.3 20 -6.7 78 78 NNW 9 15 30.29 1026 10 16 0.00 0.00
8:52 pm 20:52 Clear 22 -5.6 18 -7.8 85 85 NNW 6 9 30.31 1026 10 16 0.00 0.00
9:52 pm 21:52 Clear 25 -3.9 20 -6.7 81 81 Calm 30.31 1027 10 16 0.00 0.00
10:52 pm 22:52 Clear 25 -3.9 19 -7.2 78 78 Calm 30.32 1027 10 16 0.00 0.00
11:52 pm 23:52 Clear 22 -5.6 17 -8.3 82 82 Calm 30.28 1026 10 16 0.00 0.00

Powered by AerisWeather